Wind_Speed
43 43 42 39 38 38 38 38 37 36 35 34 32 30 30 29 27 26 26 26 26 26 27 26 26 25 24 23 23 22 21 21 20 20 20 19 19 20 20 20 21 22 23 23
43 42 40 40 41 40 40 39 38 38 37 36 35 33 32 30 29 28 28 28 28 29 30 30 29 28 27 27 27 26 26 25 25 24 24 23 23 23 24 25 26 27 27 28
40 40 39 40 40 40 40 39 38 38 38 38 37 35 33 32 31 30 29 29 30 31 32 32 31 30 30 30 31 30 30 30 29 29 28 28 28 28 29 30 31 32 32 33
41 41 40 40 40 40 39 39 39 39 39 39 38 37 33 32 31 30 30 30 31 32 32 33 33 33 33 33 34 33 33 33 33 33 33 33 33 33 34 35 36 37 38 38
42 41 40 40 39 39 39 39 39 39 40 40 38 38 33 31 30 31 31 32 32 32 32 33 34 35 35 36 36 36 36 37 37 37 37 38 38 38 39 40 41 42 43 44
45 43 42 41 40 41 40 40 40 40 41 41 38 39 36 31 31 31 32 32 32 33 33 34 35 36 37 37 38 38 39 39 40 41 42 42 43 44 44 45 46 47 48 49
48 47 45 43 42 42 42 41 41 41 41 41 39 39 38 35 33 33 33 33 34 34 35 36 36 38 39 40 40 41 41 42 43 44 45 46 47 48 49 50 51 51 52 53
50 49 48 46 45 44 43 43 42 42 42 42 42 41 40 39 37 36 35 35 35 36 37 38 39 40 41 42 43 44 44 45 46 47 48 50 51 52 53 53 54 55 56 57
54 53 52 51 49 48 47 47 46 46 46 46 46 44 43 42 40 39 39 38 38 39 39 40 41 42 43 44 45 46 48 49 50 51 52 53 54 55 56 57 58 58 59 60
57 58 57 55 54 53 51 51 50 50 51 51 50 49 47 45 45 45 45 44 44 44 44 44 45 45 45 46 47 48 49 51 52 53 54 55 56 57 58 58 59 60 60 61
60 61 61 60 59 57 56 55 55 55 55 55 54 52 51 51 51 50 50 50 49 49 49 49 49 49 49 50 50 51 51 52 53 54 55 56 57 57 58 58 59 59 60 61
59 61 62 61 60 59 59 58 58 58 59 59 58 57 56 56 56 56 56 55 54 54 54 53 53 53 54 54 55 55 55 56 56 56 57 57 57 58 58 59 59 60 60 61
56 60 62 64 65 64 64 63 62 62 62 63 62 60 60 60 60 59 58 57 57 57 57 57 57 56 56 57 57 57 58 58 58 58 58 58 58 59 59 59 59 60 60 60
58 60 63 64 63 62 62 62 62 61 63 63 62 60 60 59 59 58 58 58 59 59 59 58 58 58 58 58 57 57 57 57 58 58 58 58 58 58 58 59 59 60 60 61
57 59 60 61 61 61 61 60 59 60 61 62 61 60 58 58 58 58 59 59 59 59 59 59 58 58 58 57 57 57 57 57 58 58 58 58 58 59 59 60 61 61 62 62
55 56 57 58 59 60 61 60 60 60 59 60 59 59 57 57 58 59 59 59 59 60 60 59 59 58 58 58 58 59 59 59 59 60 60 60 61 61 62 62 63 64 65 66
54 54 55 56 57 58 61 59 58 57 57 57 57 55 55 56 56 57 58 59 60 60 60 60 60 60 61 61 61 61 62 62 62 63 63 64 64 65 65 66 67 68 68 69
53 53 54 55 57 60 58 57 56 56 56 55 55 55 56 57 58 58 59 60 60 61 61 62 62 63 63 64 64 65 65 65 65 66 67 68 68 69 69 70 71 71 72 73
54 53 53 54 56 58 57 57 56 56 56 54 55 55 57 58 59 60 60 60 61 62 62 63 64 65 66 66 67 68 68 68 69 70 71 72 73 73 74 74 75 76 76 77
56 56 56 55 56 57 56 56 56 57 58 55 55 55 57 58 60 59 60 60 61 62 63 64 65 66 68 68 69 70 71 72 73 74 75 76 77 78 79 79 80 81 81 82
58 58 58 58 58 58 57 57 57 58 57 57 56 56 57 58 59 59 60 61 61 63 64 65 66 68 69 71 72 73 74 75 76 77 78 79 80 81 82 83 84 85 85 85
60 59 59 59 60 60 58 59 60 59 59 60 60 59 59 60 60 61 62 63 64 65 66 67 68 69 71 72 74 75 76 78 79 80 81 82 83 84 85 86 86 87 87 88
63 62 62 62 61 60 61 62 63 63 63 63 63 63 63 63 63 64 64 65 66 67 69 70 71 72 73 75 76 78 79 80 81 82 83 84 85 86 87 87 88 88 89 89
63 62 62 63 63 62 62 63 63 63 63 63 64 65 65 66 66 66 67 68 68 69 70 72 73 73 75 76 78 79 80 81 83 84 85 85 86 86 86 87 88 88 88 88
64 64 63 64 63 62 62 62 62 62 63 64 65 65 66 66 67 67 68 70 71 71 72 73 74 75 76 78 79 81 82 82 83 84 85 85 86 86 86 87 87 87 87 87
63 63 62 62 61 63 63 64 65 65 65 65 66 67 67 68 68 69 70 71 72 73 74 75 76 77 78 79 80 81 83 83 84 84 84 85 86 86 87 87 86 86 85 84
Wind_Direction
213 215 217 219 222 224 226 228 231 234 238 241 243 244 246 248 248 248 248 247 247 248 250 250 250 251 253 255 258 260 263 266 268 272 275 278 282 285 287 290 292 294 297 301
215 217 218 220 222 225 228 231 234 237 241 244 246 247 248 250 250 250 250 250 249 249 251 251 252 253 254 256 258 261 263 265 268 271 273 277 280 282 284 287 288 291 294 297
219 219 221 223 226 228 231 234 236 239 242 245 247 247 249 251 253 252 252 251 250 250 251 253 255 255 256 258 259 261 263 265 268 271 273 275 277 279 282 283 285 289 292 294
219 219 222 225 227 230 232 234 237 239 241 244 246 248 247 251 253 254 254 253 253 253 253 255 257 257 258 259 260 262 264 266 268 270 273 274 276 278 280 282 284 287 289 291
223 224 225 227 229 232 234 236 239 240 242 244 246 250 246 247 251 253 255 255 255 255 256 257 258 259 259 260 261 263 264 266 268 270 272 274 276 277 278 281 283 284 286 288
226 226 228 228 230 233 235 238 240 242 244 245 246 250 249 246 248 251 254 257 258 259 259 259 260 261 261 262 263 264 265 267 268 270 271 273 274 276 277 279 280 282 284 286
229 230 231 232 235 236 238 241 244 245 246 248 248 250 252 250 248 250 252 256 259 261 262 262 263 263 263 264 265 265 266 267 269 270 272 273 274 275 276 278 279 281 282 284
234 235 236 238 239 242 243 244 247 250 251 250 250 250 251 253 253 253 255 257 259 260 262 263 264 265 266 266 267 268 268 269 270 271 272 273 274 275 276 278 279 280 281 282
236 238 238 240 241 243 244 245 248 250 251 252 251 251 252 256 258 259 259 260 261 262 262 263 264 265 266 267 268 269 270 271 272 272 273 274 275 276 277 278 279 279 280 281
237 240 240 241 242 243 244 246 247 249 252 253 254 254 256 258 261 262 263 264 264 265 265 266 266 266 267 267 268 268 269 270 270 271 272 273 274 275 276 277 277 278 279 280
237 240 241 242 243 245 245 247 249 251 253 254 257 257 259 261 262 264 265 267 268 268 268 268 269 270 270 270 270 270 271 271 271 272 272 273 274 274 275 276 277 277 278 279
239 241 242 243 243 244 246 247 249 251 253 255 257 258 260 263 264 266 267 268 269 270 271 271 272 271 272 272 272 273 273 273 273 274 275 275 276 276 277 277 278 279 279 280
236 238 240 241 243 244 246 248 249 251 252 254 256 258 260 262 264 267 268 270 271 272 273 273 273 273 273 273 274 274 274 275 275 276 277 277 278 278 278 278 279 280 280 281
235 237 240 244 247 248 248 249 250 251 253 256 258 260 262 265 266 267 268 269 270 270 271 272 273 274 275 275 275 276 276 276 277 277 278 278 278 279 279 279 279 280 280 281
237 239 241 243 244 245 246 246 248 250 253 255 257 257 259 261 262 264 265 266 268 269 270 272 273 274 275 276 276 277 277 278 278 278 278 279 279 279 279 280 280 281 281 282
238 240 241 242 244 246 247 247 249 251 252 254 256 256 257 258 260 262 264 266 268 269 270 271 272 273 274 275 276 277 278 279 279 280 281 281 281 282 282 282 282 282 283 283
237 240 241 243 244 246 246 248 250 252 253 255 257 258 258 258 259 260 262 264 266 268 269 271 272 273 274 275 276 277 278 279 280 281 282 283 283 284 284 284 285 285 285 285
236 239 242 244 245 246 248 249 251 253 253 254 255 255 256 258 258 259 261 263 265 267 269 271 272 273 274 275 276 277 279 280 281 281 282 283 284 285 286 286 286 287 287 287
236 238 240 243 245 248 249 250 252 253 254 255 256 256 257 258 259 260 262 263 264 266 267 269 270 272 273 275 276 277 278 280 281 282 283 284 285 285 286 286 287 287 287 288
238 239 240 242 245 247 249 251 252 254 255 255 256 257 258 259 260 261 262 263 264 266 267 268 270 271 273 274 276 277 278 280 281 282 283 284 285 285 286 286 287 287 288 288
240 241 242 244 246 248 249 251 252 253 256 256 257 257 258 259 260 261 262 263 265 266 267 269 270 272 273 274 275 277 278 280 281 282 283 284 285 286 286 287 288 288 289 289
241 243 244 246 248 248 250 252 253 255 255 256 258 259 260 260 261 262 263 265 266 267 269 270 272 273 274 275 276 278 279 280 282 283 284 285 286 286 287 287 288 288 289 289
244 245 247 248 250 251 251 253 255 256 257 258 259 260 262 263 264 264 265 267 268 270 271 273 274 275 276 278 279 280 281 282 282 283 284 285 286 286 287 288 288 289 289 289
244 246 248 250 251 252 253 254 256 257 258 259 260 261 263 264 265 266 267 269 271 272 274 275 276 277 278 279 280 281 281 282 283 284 285 285 286 287 287 288 289 289 290 290
246 247 249 251 253 254 255 257 258 259 259 260 261 262 264 265 267 269 270 272 273 274 276 276 277 278 279 280 281 282 283 283 284 285 285 286 286 287 288 288 289 290 290 290
248 251 253 255 255 255 256 257 258 259 261 262 263 265 266 268 270 271 272 274 275 276 277 278 279 280 280 281 282 282 283 284 285 285 286 286 287 288 288 289 289 289 290 290
Height
5773 5780 5786 5792 5795 5799 5803 5807 5811 5814 5817 5820 5824 5827 5829 5832 5835 5837 5839 5841 5843 5844 5845 5846 5848 5849 5851 5852 5852 5853 5853 5853 5854 5854 5854 5853 5853 5853 5852 5850 5849 5848 5847 5846
5769 5775 5780 5782 5787 5792 5797 5801 5805 5808 5811 5814 5818 5821 5824 5826 5829 5831 5834 5836 5837 5838 5839 5840 5842 5844 5846 5847 5847 5848 5849 5849 5849 5849 5849 5849 5849 5848 5847 5846 5845 5843 5842 5841
5764 5771 5773 5778 5783 5787 5792 5796 5799 5802 5805 5807 5811 5815 5819 5820 5823 5825 5828 5829 5830 5832 5833 5834 5836 5838 5839 5840 5841 5842 5843 5843 5844 5844 5844 5844 5843 5843 5842 5840 5839 5838 5836 5835
5755 5762 5767 5772 5777 5781 5785 5789 5792 5794 5798 5801 5805 5808 5814 5815 5817 5819 5820 5822 5824 5825 5827 5828 5830 5831 5833 5834 5834 5835 5836 5836 5837 5837 5837 5837 5837 5836 5835 5834 5833 5831 5829 5827
5751 5756 5761 5766 5772 5774 5778 5781 5784 5787 5790 5794 5798 5800 5808 5809 5811 5812 5813 5815 5817 5819 5820 5822 5823 5824 5825 5826 5827 5828 5829 5829 5829 5829 5829 5829 5829 5828 5827 5826 5824 5823 5821 5818
5743 5749 5754 5759 5763 5766 5770 5774 5777 5779 5782 5787 5792 5793 5799 5803 5805 5805 5806 5808 5809 5811 5813 5814 5815 5817 5818 5819 5820 5820 5821 5821 5821 5821 5821 5821 5820 5819 5818 5817 5815 5813 5811 5809
5736 5741 5747 5752 5756 5759 5764 5768 5770 5772 5775 5780 5784 5786 5791 5795 5797 5799 5800 5801 5802 5804 5805 5806 5807 5808 5809 5810 5811 5812 5812 5812 5812 5812 5811 5811 5810 5809 5808 5807 5805 5803 5801 5799
5728 5734 5740 5744 5749 5753 5756 5760 5763 5766 5768 5772 5774 5778 5784 5785 5788 5791 5793 5794 5795 5796 5797 5798 5799 5800 5800 5801 5802 5802 5802 5802 5802 5802 5801 5800 5799 5798 5797 5795 5793 5791 5789 5787
5720 5725 5729 5733 5739 5743 5746 5750 5754 5755 5758 5761 5765 5770 5775 5777 5779 5782 5784 5786 5787 5788 5789 5790 5790 5791 5791 5792 5792 5792 5792 5792 5791 5791 5790 5789 5787 5786 5784 5783 5781 5779 5776 5774
5708 5712 5717 5722 5726 5731 5737 5740 5742 5745 5748 5752 5756 5761 5766 5768 5770 5771 5773 5775 5777 5778 5779 5780 5780 5781 5782 5782 5782 5781 5781 5781 5780 5779 5778 5776 5775 5773 5772 5770 5767 5765 5763 5760
5696 5701 5705 5710 5716 5722 5727 5730 5733 5735 5739 5743 5747 5755 5756 5757 5759 5760 5762 5763 5765 5766 5768 5769 5769 5770 5770 5770 5770 5769 5769 5768 5767 5766 5765 5763 5762 5760 5758 5756 5754 5751 5749 5746
5685 5688 5692 5699 5704 5708 5713 5718 5722 5725 5729 5732 5737 5745 5744 5745 5746 5748 5749 5751 5752 5753 5755 5756 5756 5757 5757 5757 5756 5756 5755 5755 5753 5752 5751 5749 5748 5746 5744 5741 5739 5737 5734 5731
5671 5673 5679 5683 5691 5697 5701 5706 5709 5713 5715 5719 5725 5735 5733 5733 5734 5735 5737 5738 5739 5740 5741 5741 5742 5742 5742 5742 5742 5742 5741 5740 5739 5738 5737 5735 5733 5731 5729 5727 5724 5722 5719 5717
5657 5661 5667 5675 5682 5686 5690 5694 5698 5700 5702 5709 5716 5722 5722 5722 5722 5723 5724 5724 5725 5726 5727 5727 5727 5727 5727 5727 5727 5727 5726 5726 5724 5723 5722 5720 5718 5716 5714 5712 5710 5707 5705 5702
5645 5650 5656 5662 5666 5671 5675 5680 5683 5686 5692 5696 5705 5707 5710 5708 5708 5708 5709 5710 5711 5712 5713 5713 5713 5713 5713 5713 5712 5712 5711 5710 5709 5708 5706 5705 5703 5701 5699 5697 5694 5692 5689 5687
5634 5639 5644 5649 5653 5656 5660 5667 5671 5675 5680 5684 5689 5694 5697 5694 5694 5695 5696 5697 5698 5699 5699 5699 5699 5699 5699 5698 5697 5696 5695 5694 5693 5692 5690 5689 5687 5685 5683 5681 5678 5676 5673 5670
5623 5628 5633 5637 5640 5641 5646 5657 5660 5664 5668 5672 5676 5683 5681 5681 5681 5682 5683 5684 5684 5685 5685 5685 5685 5684 5684 5683 5682 5681 5680 5679 5677 5676 5674 5672 5670 5668 5665 5663 5660 5657 5655 5652
5612 5617 5620 5624 5627 5628 5643 5645 5648 5650 5655 5659 5662 5665 5666 5666 5667 5668 5670 5671 5671 5671 5671 5671 5670 5669 5669 5668 5667 5666 5664 5663 5661 5659 5657 5655 5653 5650 5648 5645 5641 5638 5636 5632
5601 5605 5608 5611 5613 5618 5628 5633 5635 5637 5642 5646 5648 5650 5651 5651 5652 5655 5656 5657 5657 5657 5657 5656 5655 5654 5653 5652 5651 5650 5648 5646 5644 5642 5640 5637 5634 5632 5629 5626 5623 5619 5616 5613
5588 5592 5596 5598 5601 5607 5619 5620 5621 5623 5627 5634 5634 5635 5636 5637 5639 5642 5641 5642 5642 5642 5642 5641 5640 5639 5638 5636 5635 5633 5631 5629 5627 5624 5621 5618 5615 5612 5609 5606 5602 5598 5594 5591
5576 5579 5582 5586 5589 5596 5605 5606 5607 5611 5618 5618 5619 5620 5622 5623 5625 5626 5626 5626 5627 5627 5626 5626 5624 5623 5621 5620 5618 5616 5613 5611 5609 5606 5603 5599 5595 5592 5588 5585 5580 5576 5572 5568
5563 5566 5570 5573 5576 5588 5591 5592 5595 5597 5600 5602 5603 5605 5607 5608 5609 5610 5611 5611 5610 5610 5609 5609 5607 5605 5603 5601 5600 5598 5595 5592 5590 5587 5583 5579 5575 5570 5566 5562 5558 5553 5548 5544
5549 5554 5558 5562 5568 5573 5575 5577 5578 5581 5584 5587 5589 5590 5592 5593 5594 5594 5595 5594 5594 5593 5592 5591 5590 5588 5585 5582 5580 5578 5575 5572 5569 5566 5562 5558 5554 5549 5543 5539 5535 5530 5524 5519
5535 5539 5543 5547 5553 5558 5559 5561 5563 5565 5568 5571 5573 5575 5576 5577 5578 5578 5578 5578 5577 5576 5574 5573 5571 5569 5566 5563 5559 5556 5553 5551 5548 5544 5540 5535 5531 5527 5521 5516 5510 5506 5500 5494
5521 5524 5528 5533 5539 5542 5544 5545 5547 5549 5551 5554 5556 5558 5560 5561 5561 5561 5561 5560 5559 5557 5555 5553 5551 5549 5546 5543 5539 5534 5531 5528 5526 5522 5517 5513 5508 5503 5498 5493 5488 5482 5477 5470
5509 5514 5517 5520 5525 5525 5527 5528 5530 5533 5535 5538 5540 5542 5543 5544 5544 5543 5542 5541 5540 5538 5536 5533 5531 5528 5525 5522 5518 5513 5509 5506 5503 5499 5495 5490 5485 5480 5474 5470 5466 5459 5453 5447